FW1704 Weather Reports


Display with metric or nautical units.
time (UTC)temp
F
wind
direction
speed
MPH
gust
MPH
rain 1hr
in
rain 24hr
in
rain mn
in
humidity
%
barometer
mb
20260507234605 75 0 2.0 9.0 0.00 0.10 0.10 82 1014.2
20260507234049 76 0 1.0 5.0 0.00 0.10 0.10 82 1014.2
20260507233555 76 27 0.0 4.0 0.00 0.10 0.10 83 1014.3
20260507233052 76 0 0.0 5.0 0.00 0.10 0.10 82 1014.2
20260507232549 76 23 2.0 6.0 0.00 0.10 0.10 82 1014.2
20260507232049 76 0 2.0 7.0 0.00 0.10 0.10 82 1014.1
20260507231559 76 46 2.0 7.0 0.00 0.10 0.10 82 1014.1
20260507231049 76 95 2.0 6.0 0.00 0.10 0.10 82 1014.0
20260507230552 76 111 1.0 7.0 0.00 0.10 0.10 83 1014.1
20260507230105 76 90 2.0 8.0 0.00 0.10 0.10 82 1014.1
20260507225551 76 130 2.0 8.0 0.00 0.10 0.10 82 1014.1
20260507225051 76 46 2.0 6.0 0.00 0.10 0.10 83 1014.1
20260507224559 76 11 1.0 6.0 0.00 0.10 0.10 83 1014.0
20260507224051 76 65 0.0 4.0 0.00 0.10 0.10 83 1014.0
20260507223550 76 348 1.0 7.0 0.00 0.10 0.10 83 1014.0
20260507223053 76 86 1.0 7.0 0.00 0.10 0.10 83 1013.8
20260507222555 76 67 1.0 5.0 0.00 0.10 0.10 83 1013.8
20260507222051 76 64 1.0 5.0 0.00 0.10 0.10 83 1013.9
20260507221559 76 89 2.0 8.0 0.00 0.10 0.10 82 1013.8
20260507221051 77 42 2.0 8.0 0.00 0.10 0.10 82 1013.7
20260507220549 77 62 3.0 8.0 0.00 0.10 0.10 82 1013.8
20260507220055 77 98 3.0 7.0 0.00 0.10 0.10 82 1013.6
20260507215551 77 47 2.0 7.0 0.00 0.10 0.10 81 1013.6
20260507215049 78 15 2.0 7.0 0.00 0.10 0.10 81 1013.7
20260507214605 78 19 1.0 5.0 0.00 0.10 0.10 80 1013.7
20260507214050 78 42 1.0 5.0 0.00 0.10 0.10 80 1013.6
20260507213551 78 97 1.0 5.0 0.00 0.10 0.10 81 1013.7
20260507213057 78 36 1.0 4.0 0.00 0.10 0.10 80 1013.7
20260507212551 78 94 0.0 4.0 0.00 0.10 0.10 81 1013.6
20260507212053 78 69 2.0 8.0 0.00 0.10 0.10 81 1013.6
20260507211600 78 28 2.0 8.0 0.00 0.10 0.10 81 1013.7
20260507211049 78 38 2.0 8.0 0.00 0.10 0.10 80 1013.6
20260507210551 78 71 1.0 7.0 0.00 0.10 0.10 81 1013.6
20260507205552 78 5 3.0 9.0 0.00 0.10 0.10 80 1013.6
20260507205049 78 145 2.0 9.0 0.00 0.10 0.10 80 1013.6
20260507204601 78 328 4.0 9.0 0.00 0.10 0.10 80 1013.6
20260507204052 79 360 4.0 9.0 0.00 0.10 0.10 79 1013.6
20260507203551 79 52 2.0 7.0 0.00 0.10 0.10 79 1013.6
20260507203109 79 28 3.0 7.0 0.00 0.10 0.10 78 1013.7
20260507202550 79 100 2.0 6.0 0.00 0.10 0.10 78 1013.8
20260507202051 80 0 2.0 7.0 0.00 0.10 0.10 78 1013.7
20260507201600 80 98 2.0 7.0 0.00 0.10 0.10 77 1013.6
20260507201054 81 51 1.0 4.0 0.00 0.10 0.10 76 1013.7
20260507200551 81 24 1.0 4.0 0.00 0.10 0.10 76 1013.9
20260507200106 81 5 2.0 6.0 0.00 0.10 0.10 76 1013.9
20260507195549 81 348 2.0 8.0 0.00 0.10 0.10 74 1013.9
20260507195052 81 307 3.0 8.0 0.00 0.10 0.10 74 1013.9
20260507194559 82 316 1.0 7.0 0.00 0.10 0.10 74 1013.9
20260507194049 82 347 1.0 9.0 0.00 0.10 0.10 75 1013.9
20260507193549 81 70 1.0 9.0 0.00 0.10 0.10 75 1014.0
20260507193058 81 101 2.0 7.0 0.00 0.10 0.10 74 1014.1
20260507192551 82 47 1.0 7.0 0.00 0.10 0.10 74 1014.1
20260507192051 82 290 2.0 6.0 0.00 0.10 0.10 73 1014.1
20260507191602 82 355 1.0 6.0 0.00 0.10 0.10 73 1014.1
20260507191053 82 96 2.0 6.0 0.00 0.10 0.10 74 1014.1
20260507190553 83 96 1.0 6.0 0.00 0.10 0.10 72 1014.0
20260507190105 83 48 1.0 6.0 0.00 0.10 0.10 74 1014.2
20260507185553 82 327 1.0 7.0 0.00 0.10 0.10 74 1014.4
20260507185049 81 115 1.0 7.0 0.00 0.10 0.10 75 1014.4
20260507184558 80 0 1.0 5.0 0.00 0.10 0.10 76 1014.3
20260507184050 80 352 2.0 6.0 0.00 0.10 0.10 76 1014.3
20260507183554 79 57 0.0 6.0 0.00 0.10 0.10 78 1014.3
20260507183054 78 137 2.0 7.0 0.00 0.10 0.10 78 1014.4
20260507182552 79 34 2.0 8.0 0.00 0.10 0.10 77 1014.5
20260507182051 79 5 2.0 8.0 0.00 0.10 0.10 76 1014.6
20260507181553 80 63 1.0 6.0 0.00 0.10 0.10 78 1014.5
20260507181049 79 161 2.0 6.0 0.00 0.10 0.10 78 1014.6
20260507180549 78 186 1.0 6.0 0.00 0.10 0.10 80 1014.6
20260507180054 77 235 2.0 8.0 0.00 0.10 0.10 82 1014.6
20260507175550 77 94 2.0 8.0 0.00 0.10 0.10 81 1014.8
20260507175050 77 120 1.0 4.0 0.00 0.10 0.10 83 1014.8
20260507174557 76 44 1.0 5.0 0.00 0.10 0.10 84 1014.7
20260507174049 75 276 1.0 6.0 0.00 0.10 0.10 86 1014.7
20260507173549 73 346 3.0 9.0 0.00 0.10 0.10 87 1014.9
20260507173102 73 325 3.0 9.0 0.00 0.10 0.10 87 1014.9
20260507172552 73 295 2.0 7.0 0.00 0.10 0.10 88 1014.8
20260507172051 72 13 1.0 8.0 0.00 0.10 0.10 88 1015.0
20260507171555 72 190 2.0 8.0 0.00 0.10 0.10 89 1014.9
20260507171051 71 12 3.0 9.0 0.00 0.10 0.10 90 1015.0
20260507170551 71 55 2.0 9.0 0.00 0.10 0.10 90 1015.2
20260507165549 70 90 2.0 8.0 0.00 0.10 0.10 91 1015.3
20260507165051 69 341 2.0 8.0 0.00 0.10 0.10 91 1015.3
20260507164603 69 232 1.0 8.0 0.00 0.10 0.10 92 1015.3
20260507164052 69 101 3.0 10.0 0.00 0.10 0.10 92 1015.4
20260507163551 68 338 2.0 10.0 0.00 0.10 0.10 92 1015.5
20260507163102 68 5 3.0 11.0 0.00 0.10 0.10 92 1015.5
20260507162550 69 311 2.0 11.0 0.00 0.10 0.10 92 1015.6
20260507162051 69 319 1.0 11.0 0.00 0.10 0.10 93 1015.6
20260507161601 68 54 1.0 8.0 0.00 0.10 0.10 93 1015.5
20260507161050 68 61 2.0 8.0 0.00 0.10 0.10 93 1015.6
20260507160550 68 34 2.0 6.0 0.00 0.10 0.10 93 1015.6
20260507160101 68 317 1.0 5.0 0.00 0.10 0.10 93 1015.4
20260507155549 67 344 1.0 7.0 0.00 0.10 0.10 93 1015.2
20260507155050 67 5 1.0 7.0 0.00 0.10 0.10 93 1015.2
20260507154600 67 333 2.0 6.0 0.01 0.10 0.10 93 1015.2
20260507154052 67 119 0.0 6.0 0.02 0.10 0.10 93 1015.1
20260507153549 67 65 2.0 6.0 0.02 0.10 0.10 93 1015.2
20260507153111 67 71 1.0 5.0 0.02 0.10 0.10 93 1015.0
20260507152555 67 0 1.0 5.0 0.02 0.10 0.10 92 1014.9
20260507152051 67 77 1.0 6.0 0.02 0.10 0.10 92 1014.9
20260507151556 67 75 0.0 6.0 0.03 0.10 0.10 92 1014.9
20260507151049 67 331 1.0 6.0 0.03 0.10 0.10 92 1015.0
20260507150552 67 32 2.0 6.0 0.06 0.10 0.10 92 1015.0
20260507150051 67 28 1.0 6.0 0.06 0.10 0.10 92 1015.2
20260507145550 67 0 1.0 6.0 0.07 0.10 0.10 92 1015.3
20260507145050 67 360 2.0 6.0 0.07 0.10 0.10 92 1015.1
20260507144555 67 0 2.0 8.0 0.06 0.09 0.09 92 1015.3
20260507144053 67 75 2.0 8.0 0.05 0.08 0.08 92 1015.2
20260507143552 67 138 1.0 9.0 0.05 0.08 0.08 92 1015.2
20260507143058 67 306 2.0 9.0 0.06 0.08 0.08 92 1015.1
20260507142552 68 319 3.0 9.0 0.07 0.08 0.08 92 1015.1
20260507142049 68 284 1.0 6.0 0.07 0.08 0.08 92 1015.1
20260507141557 68 343 2.0 8.0 0.06 0.07 0.07 92 1015.1
20260507141050 68 323 1.0 9.0 0.06 0.07 0.07 92 1015.0
20260507140550 68 101 1.0 9.0 0.03 0.04 0.04 92 1014.9
20260507140052 69 317 3.0 8.0 0.03 0.04 0.04 92 1014.9
20260507135549 69 269 2.0 8.0 0.02 0.03 0.03 92 1014.8
20260507135050 69 61 3.0 8.0 0.02 0.03 0.03 92 1014.9
20260507134603 70 0 2.0 7.0 0.02 0.03 0.03 92 1014.7
20260507134049 70 329 2.0 7.0 0.02 0.03 0.03 92 1014.6
20260507133551 70 15 1.0 7.0 0.02 0.03 0.03 92 1014.5
20260507133118 70 321 0.0 7.0 0.01 0.02 0.02 92 1014.3
20260507132550 70 34 2.0 5.0 0.00 0.01 0.01 92 1014.2
20260507132049 70 335 1.0 8.0 0.00 0.01 0.01 92 1014.5
20260507131555 70 341 2.0 8.0 0.00 0.01 0.01 92 1014.7
20260507131049 70 329 1.0 6.0 0.00 0.01 0.01 92 1014.6
20260507130548 71 331 2.0 8.0 0.00 0.01 0.01 92 1014.6
20260507130108 71 118 2.0 8.0 0.00 0.01 0.01 92 1014.4
20260507125550 71 322 2.0 8.0 0.00 0.01 0.01 92 1014.4
20260507125049 71 9 2.0 7.0 0.00 0.01 0.01 92 1014.3
20260507124552 72 306 1.0 8.0 0.01 0.01 0.01 92 1014.1
20260507124050 72 5 3.0 8.0 0.01 0.01 0.01 92 1014.1
20260507123550 72 267 2.0 6.0 0.01 0.01 0.01 92 1014.0
20260507123053 72 338 2.0 6.0 0.01 0.01 0.01 91 1013.9
20260507122548 72 319 2.0 6.0 0.01 0.01 0.01 92 1013.8
20260507122053 72 271 2.0 6.0 0.01 0.01 0.01 91 1013.6
20260507121606 73 297 3.0 6.0 0.01 0.01 0.01 91 1013.9
20260507121050 73 344 1.0 4.0 0.01 0.01 0.01 91 1013.6
20260507120552 73 5 0.0 5.0 0.01 0.01 0.01 91 1013.4
20260507115552 74 300 2.0 5.0 0.01 0.01 0.01 91 1013.1
20260507115054 74 306 0.0 7.0 0.01 0.01 0.01 91 1013.0
20260507114634 75 284 2.0 7.0 0.00 0.00 0.00 91 1012.8
20260507114053 76 155 1.0 11.0 0.00 0.00 0.00 91 1012.9
20260507113552 76 60 4.0 11.0 0.00 0.00 0.00 91 1012.7
20260507113053 77 0 1.0 6.0 0.00 0.00 0.00 91 1012.6
20260507112552 77 222 1.0 7.0 0.00 0.00 0.00 91 1012.5
20260507112054 77 0 2.0 7.0 0.00 0.00 0.00 91 1012.5
20260507111558 77 256 1.0 7.0 0.00 0.00 0.00 91 1012.3
20260507111056 77 217 1.0 7.0 0.00 0.00 0.00 91 1012.2
20260507110552 77 323 1.0 6.0 0.00 0.00 0.00 91 1012.1
20260507110052 77 259 2.0 6.0 0.00 0.00 0.00 91 1012.1
20260507105552 77 180 2.0 6.0 0.00 0.00 0.00 91 1012.0
20260507105052 77 223 2.0 8.0 0.00 0.00 0.00 91 1012.1
20260507104553 77 257 1.0 8.0 0.00 0.00 0.00 91 1012.0
20260507104050 77 253 2.0 11.0 0.00 0.00 0.00 91 1012.0
20260507103552 77 240 4.0 11.0 0.00 0.00 0.00 91 1011.8
20260507103053 77 238 2.0 8.0 0.00 0.00 0.00 91 1011.9
20260507102552 77 232 2.0 8.0 0.00 0.00 0.00 91 1011.9
20260507102050 77 227 2.0 7.0 0.00 0.00 0.00 91 1011.7
20260507101558 77 252 2.0 7.0 0.00 0.00 0.00 91 1011.7
20260507101052 77 175 2.0 7.0 0.00 0.00 0.00 91 1011.7
20260507100553 77 239 3.0 8.0 0.00 0.00 0.00 91 1011.7
20260507095554 77 225 3.0 9.0 0.00 0.00 0.00 91 1011.7
20260507095052 77 225 2.0 8.0 0.00 0.00 0.00 91 1011.8
20260507094552 77 175 2.0 6.0 0.00 0.00 0.00 91 1011.6
20260507094054 77 231 1.0 10.0 0.00 0.00 0.00 91 1011.6
20260507093552 77 240 2.0 10.0 0.00 0.00 0.00 91 1011.5
20260507093055 77 0 2.0 9.0 0.00 0.00 0.00 91 1011.5
20260507092552 77 236 4.0 9.0 0.00 0.00 0.00 91 1011.4
20260507092053 77 260 2.0 8.0 0.00 0.00 0.00 91 1011.4
20260507091553 77 257 2.0 8.0 0.00 0.00 0.00 91 1011.5
20260507091052 77 235 1.0 9.0 0.00 0.00 0.00 91 1011.4
20260507090632 77 205 3.0 9.0 0.00 0.00 0.00 91 1011.5
20260507090054 77 199 2.0 7.0 0.00 0.00 0.00 91 1011.4
20260507085550 77 231 2.0 7.0 0.00 0.00 0.00 91 1011.5
20260507085051 77 177 2.0 8.0 0.00 0.00 0.00 91 1011.5
20260507084601 77 233 2.0 8.0 0.00 0.00 0.00 91 1011.6
20260507084052 77 236 2.0 7.0 0.00 0.00 0.00 91 1011.6
20260507083552 77 222 2.0 8.0 0.00 0.00 0.00 91 1011.4
20260507083057 77 260 3.0 8.0 0.00 0.00 0.00 91 1011.5
20260507082549 77 220 1.0 7.0 0.00 0.00 0.00 91 1011.4
20260507082049 77 246 2.0 7.0 0.00 0.00 0.00 91 1011.4
20260507081552 77 240 3.0 7.0 0.00 0.00 0.00 91 1011.4
20260507081049 77 209 1.0 8.0 0.00 0.00 0.00 91 1011.2
20260507080548 77 225 2.0 8.0 0.00 0.00 0.00 91 1011.3
20260507080117 77 229 2.0 8.0 0.00 0.00 0.00 91 1011.3
20260507075549 77 209 3.0 8.0 0.00 0.00 0.00 91 1011.4
20260507075051 77 200 3.0 8.0 0.00 0.00 0.00 91 1011.5
20260507074552 77 210 4.0 8.0 0.00 0.00 0.00 91 1011.5
20260507074050 77 194 2.0 7.0 0.00 0.00 0.00 91 1011.6
20260507073550 77 237 3.0 7.0 0.00 0.00 0.00 91 1011.7
20260507073105 77 277 2.0 7.0 0.00 0.00 0.00 91 1011.8
20260507072551 77 257 2.0 6.0 0.00 0.00 0.00 91 1011.9
20260507072051 77 234 3.0 6.0 0.00 0.00 0.00 91 1012.0
20260507071554 77 248 2.0 5.0 0.00 0.00 0.00 91 1012.0
20260507071051 77 201 2.0 7.0 0.00 0.00 0.00 91 1012.0
20260507070549 77 213 2.0 7.0 0.00 0.00 0.00 91 1012.0
20260507070056 77 186 2.0 5.0 0.00 0.00 0.00 91 1012.1
20260507065550 77 145 1.0 5.0 0.00 0.00 0.00 91 1012.1
20260507065049 77 259 1.0 8.0 0.00 0.00 0.00 91 1012.1
20260507064559 77 275 2.0 8.0 0.00 0.00 0.00 91 1012.2
20260507064049 77 224 2.0 5.0 0.00 0.00 0.00 91 1012.2
20260507063548 77 214 1.0 5.0 0.00 0.00 0.00 91 1012.2
20260507063104 77 262 1.0 5.0 0.00 0.00 0.00 91 1012.2
20260507062552 77 225 2.0 8.0 0.00 0.00 0.00 91 1012.1
20260507062050 77 0 3.0 8.0 0.00 0.00 0.00 91 1012.3
20260507061552 77 173 3.0 11.0 0.00 0.00 0.00 91 1012.2
20260507061049 77 236 2.0 11.0 0.00 0.00 0.00 91 1012.3
20260507060549 77 248 2.0 10.0 0.00 0.00 0.00 91 1012.3
20260507055552 77 209 4.0 10.0 0.00 0.00 0.00 91 1012.2
20260507055053 77 217 3.0 8.0 0.00 0.00 0.00 91 1012.2
20260507054556 77 256 2.0 13.0 0.00 0.00 0.00 91 1012.1
20260507054052 77 273 2.0 13.0 0.00 0.00 0.00 91 1012.2
20260507053553 77 250 4.0 13.0 0.00 0.00 0.00 91 1012.1
20260507053113 77 232 4.0 11.0 0.00 0.00 0.00 91 1012.1
20260507052550 77 248 4.0 11.0 0.00 0.00 0.00 91 1012.1
20260507052049 77 243 3.0 10.0 0.00 0.00 0.00 91 1012.1
20260507051605 77 261 4.0 10.0 0.00 0.00 0.00 91 1012.2
20260507051054 77 237 3.0 7.0 0.00 0.00 0.00 91 1012.1
20260507050549 77 217 2.0 9.0 0.00 0.00 0.00 91 1012.1
20260507050057 77 261 3.0 9.0 0.00 0.00 0.00 91 1012.1
20260507045549 77 233 4.0 11.0 0.00 0.00 0.00 91 1012.1
20260507045050 77 253 4.0 11.0 0.00 0.00 0.00 90 1012.1
20260507044556 77 261 4.0 9.0 0.00 0.00 0.00 90 1012.1
20260507044052 77 256 2.0 9.0 0.00 0.00 0.00 90 1012.0
20260507043551 77 263 3.0 8.0 0.00 0.00 0.00 90 1011.8
20260507043056 77 267 3.0 9.0 0.00 0.00 0.00 90 1011.4
20260507042551 77 123 4.0 10.0 0.00 0.00 0.00 90 1011.2
20260507042051 77 220 4.0 10.0 0.00 0.00 0.00 90 1011.1
20260507041556 77 200 3.0 11.0 0.00 0.00 0.00 90 1011.3
20260507041051 77 227 4.0 14.0 0.00 0.00 0.00 90 1011.2
20260507040549 77 58 4.0 14.0 0.00 0.00 0.00 90 1011.2
20260507040057 78 227 4.0 10.0 0.00 0.00 0.00 90 1011.3
20260507035551 78 195 3.0 9.0 0.00 0.00 0.00 90 1011.3
20260507035049 78 187 3.0 11.0 0.00 0.00 0.00 90 1011.3
20260507034558 78 189 4.0 11.0 0.00 0.00 0.00 90 1011.3
20260507034051 78 226 3.0 9.0 0.00 0.00 0.00 90 1011.4
20260507033549 78 218 4.0 10.0 0.00 0.00 0.00 90 1011.5
20260507033101 78 222 4.0 11.0 0.00 0.00 0.00 90 1011.5
20260507032552 78 182 4.0 11.0 0.00 0.00 0.00 90 1011.6
20260507032051 78 155 3.0 8.0 0.00 0.00 0.00 90 1011.8
20260507031559 78 273 4.0 8.0 0.00 0.00 0.00 90 1011.6
20260507031051 78 227 2.0 8.0 0.00 0.00 0.00 90 1011.5
20260507030548 78 266 3.0 10.0 0.00 0.00 0.00 89 1011.4
20260507030054 78 200 3.0 10.0 0.00 0.00 0.00 89 1011.5
20260507025549 78 247 2.0 8.0 0.00 0.00 0.00 89 1011.6
20260507025049 78 219 3.0 7.0 0.00 0.00 0.00 89 1011.8
20260507024607 78 217 1.0 7.0 0.00 0.00 0.00 89 1011.8
20260507024053 78 211 2.0 7.0 0.00 0.00 0.00 89 1011.9
20260507023554 79 91 2.0 5.0 0.00 0.00 0.00 89 1012.1
20260507023053 79 96 1.0 7.0 0.00 0.00 0.00 89 1012.3
20260507022559 79 13 1.0 7.0 0.00 0.00 0.00 89 1012.3
20260507022053 79 211 2.0 7.0 0.00 0.00 0.00 89 1012.4
20260507021553 79 250 2.0 6.0 0.00 0.00 0.00 89 1012.2
20260507021048 79 268 1.0 6.0 0.00 0.00 0.00 88 1012.3
20260507020551 79 254 1.0 7.0 0.00 0.00 0.00 88 1012.2
20260507020109 79 266 2.0 7.0 0.00 0.00 0.00 88 1012.1
20260507015553 79 246 2.0 7.0 0.00 0.00 0.00 88 1012.0
20260507015050 79 193 0.0 8.0 0.00 0.00 0.00 88 1011.8
20260507014601 79 191 2.0 8.0 0.00 0.00 0.00 88 1011.8
20260507014050 79 209 2.0 8.0 0.00 0.00 0.00 88 1011.7
20260507013552 79 163 2.0 8.0 0.00 0.00 0.00 87 1011.7
20260507013057 79 235 2.0 7.0 0.00 0.00 0.00 87 1011.5
20260507012552 79 148 2.0 7.0 0.00 0.00 0.00 87 1011.4
20260507012050 79 252 3.0 7.0 0.00 0.00 0.00 87 1011.5
20260507011552 79 234 3.0 8.0 0.00 0.00 0.00 87 1011.4
20260507011049 79 248 2.0 8.0 0.00 0.00 0.00 86 1011.4
20260507010551 79 261 3.0 8.0 0.00 0.00 0.00 86 1011.3
20260507005551 79 248 1.0 6.0 0.00 0.00 0.00 86 1011.3
20260507005052 80 195 2.0 6.0 0.00 0.00 0.00 86 1011.1
20260507004605 80 200 2.0 6.0 0.00 0.00 0.00 86 1010.9
20260507004052 80 5 2.0 7.0 0.00 0.00 0.00 85 1010.9
20260507003553 80 276 2.0 7.0 0.00 0.00 0.00 85 1011.0
20260507003056 80 225 2.0 10.0 0.00 0.00 0.00 85 1010.9
20260507002550 80 267 3.0 10.0 0.00 0.00 0.00 85 1010.8
20260507002050 80 146 2.0 10.0 0.00 0.00 0.00 85 1010.6
20260507001555 80 140 5.0 9.0 0.00 0.00 0.00 85 1010.7
20260507001049 80 111 2.0 8.0 0.00 0.00 0.00 84 1010.6
20260507000549 80 212 3.0 8.0 0.00 0.00 0.00 84 1010.9
20260507000058 80 248 3.0 9.0 0.00 0.00 0.00 84 1011.1
20260506235552 80 238 2.0 11.0 0.00 0.00 0.00 84 1011.1
20260506235050 81 227 4.0 11.0 0.00 0.00 0.00 83 1011.1